Home > Weather > Smara > Past weeks

Weather for the Past 2 Weeks in Smara, Western Sahara

Now
68 °F

Sunny.


Feels Like: 68 °F
Forecast: 56 / 88 °F
Wind: 15 mph from Northeast

Location: Laayoune/Hassan Isl

Current Time: May 1, 2016 at 9:20:14 PM

Latest Report: May 1, 2016 at 9:00 PM


Visibility: 10 mi

Pressure: 30.01 "Hg

Humidity: 64%

Dew Point: 55 °F

Location of SmaraLocation

Historic Weather in Smara — Graph

°F

Smara Temperature Yesterday

Maximum temperature yesterday: 79 °F (at 3:00 PM)
Minimum temperature yesterday: 63 °F (at 6:00 AM)
Average temperature yesterday: 69 °F

High & Low Weather Summary for the Past Weeks

 TemperatureHumidityPressure
High99 °F (Apr 29, 4:00 PM)100% (Apr 23, 5:00 AM)30.12 "Hg (Apr 23, 5:00 AM)
Low-69 °F (Apr 23, 5:00 AM)16% (Apr 21, 3:00 PM)29.89 "Hg (Apr 25, 5:00 PM)
Average68 °F62%30.00 "Hg
* Reported Apr 16 8:00 PM — May 1 8:00 PM, Smara, Weather by CustomWeather, © 2016

Note: Actual official high and low records may vary slightly from our data, if they occured in-between our weather recording intervals... More about our weather records

Advertising

Smara Weather History for the Previous 24 Hours

Scroll right to see more
 ConditionsComfort  
Time TempWeatherWind HumidityBarometerVisibility
8:00 PM
Sun, May 1
70 °FScattered clouds.16 mph57%30.01 "HgN/A
7:00 PM72 °FScattered clouds.17 mph57%29.98 "HgN/A
6:00 PM73 °FSunny.18 mph50%29.98 "Hg10 mi
5:00 PM75 °FSunny.21 mph47%29.98 "Hg10 mi
4:00 PM77 °FSunny.21 mph44%29.98 "Hg10 mi
3:00 PM75 °FSunny.23 mph47%30.01 "Hg10 mi
2:00 PM77 °FSunny.18 mph44%30.01 "Hg10 mi
1:00 PM77 °FScattered clouds.20 mph44%30.01 "HgN/A
12:00 PM72 °FScattered clouds.20 mph57%30.04 "HgN/A
11:00 AM70 °FPartly sunny.18 mph60%30.04 "HgN/A
10:00 AM68 °FScattered clouds.20 mph64%30.04 "HgN/A
9:00 AM64 °FPassing clouds.10 mph78%30.04 "HgN/A
8:00 AM63 °FPassing clouds.9 mph83%30.04 "HgN/A
4:00 AM63 °FPassing clouds.12 mph68%30.04 "HgN/A
3:00 AM63 °FPassing clouds.16 mph73%30.04 "HgN/A
2:00 AM63 °FClear.13 mph77%30.04 "Hg10 mi
1:00 AM63 °FClear.16 mph77%30.01 "Hg10 mi
12:00 AM64 °FPassing clouds.17 mph60%30.07 "HgN/A
11:00 PM
Sat, Apr 30
64 °FPassing clouds.21 mph68%30.07 "HgN/A
10:00 PM66 °FScattered clouds.18 mph64%30.07 "HgN/A
9:00 PM66 °FScattered clouds.21 mph68%30.04 "HgN/A
Weather by CustomWeather, © 2016

See weather overviewHow to use our weather pages